Probability
0 0 0 0 0 0 0 0 0 0 0 0 0 0 0 0 0 0 0 0 0 0 0 0 0 0 0 0 0 0 0 0 0 0 0 0 0 0 0 0 0 0 0 0 0 0 0 0 0
0 0 0 0 0 0 0 0 0 0 0 0 0 0 0 0 0 0 0 0 0 0 0 0 0 0 0 0 0 0 0 0 0 0 0 0 0 0 0 0 0 0 0 0 0 0 0 0 0
0 0 0 0 0 0 0 0 0 0 0 0 0 0 0 0 0 0 0 0 0 0 0 0 0 0 0 0 0 0 0 0 0 0 0 0 0 0 0 0 0 0 0 0 0 0 0 0 0
0 0 0 0 0 0 0 0 0 0 0 0 0 0 0 0 0 0 0 0 0 0 0 0 0 0 0 0 0 0 0 0 0 0 0 0 0 0 0 0 0 0 0 0 0 0 0 0 0
0 0 0 0 0 0 0 0 0 0 0 0 0 0 0 0 0 0 0 0 0 0 0 0 0 0 0 0 0 0 0 0 0 0 0 0 0 0 0 0 0 0 0 0 0 0 0 0 0
0 0 0 0 0 0 0 0 0 0 0 0 0 0 0 0 0 0 0 0 0 0 0 0 0 0 0 0 0 0 0 0 0 0 0 0 0 0 0 0 0 0 0 0 0 0 0 0 0
0 0 0 0 0 0 0 0 0 0 0 0 0 0 0 0 0 0 0 0 0 0 0 0 0 0 0 0 0 0 0 0 0 0 0 0 0 0 0 0 0 0 0 0 0 0 0 0 0
0 0 0 0 0 0 0 0 0 0 0 0 0 0 0 0 0 0 0 0 0 0 0 0 0 0 0 0 0 0 0 0 0 0 0 0 0 0 0 0 0 0 0 0 0 0 0 0 0
0 0 0 0 0 0 0 0 0 0 0 0 0 0 0 0 0 0 0 0 0 0 0 0 0 0 0 0 0 0 0 0 0 0 0 0 0 0 0 0 0 0 0 0 0 0 0 0 0
0 0 0 0 0 0 0 0 0 0 0 0 0 0 0 0 0 0 0 0 0 0 0 0 0 0 0 0 0 0 0 0 0 0 0 0 0 0 0 0 0 0 0 0 0 0 0 0 0
0 0 0 0 0 0 0 0 0 0 0 0 0 0 0 0 0 0 0 0 0 0 0 0 0 0 0 0 0 0 0 0 0 0 0 0 0 0 0 0 0 0 0 0 0 0 0 0 0
0 0 0 0 0 0 0 0 0 0 0 0 0 0 0 0 0 0 0 0 1 0 0 0 0 0 0 0 0 0 0 0 0 0 0 0 0 0 0 0 0 0 0 0 0 0 0 0 0
0 0 0 0 0 0 0 0 0 0 0 0 1 1 1 0 0 0 0 0 0 0 0 1 1 0 0 0 0 0 0 0 0 0 0 0 0 0 0 0 0 0 0 0 0 0 0 0 0
0 0 0 0 0 0 0 0 0 0 0 0 1 1 1 0 0 0 0 0 0 0 0 1 1 1 0 0 0 0 0 0 0 0 0 0 0 0 0 0 0 0 0 0 0 0 0 0 0
0 0 0 0 0 0 0 0 0 0 0 0 0 0 0 0 0 0 0 0 0 0 0 1 1 1 0 0 0 0 0 0 0 0 0 0 0 0 0 0 0 0 0 0 0 0 0 0 0
0 0 0 0 0 0 0 0 0 0 0 0 0 0 0 0 0 0 0 0 0 0 0 0 0 0 0 0 0 0 0 0 0 0 0 0 0 0 0 0 0 0 0 0 0 0 0 0 0
0 0 0 0 0 0 0 0 0 0 0 0 0 0 0 0 0 0 0 0 0 0 0 0 0 0 0 0 0 0 0 0 0 0 0 0 0 0 0 0 0 0 0 0 0 0 0 0 0
0 0 0 0 0 0 0 0 0 0 0 0 0 0 0 0 0 0 0 0 0 0 0 0 0 0 1 1 0 0 0 0 0 0 0 0 0 0 0 0 0 0 0 0 0 0 0 0 0
0 0 0 0 0 0 0 0 0 0 0 0 0 0 0 0 0 0 0 0 0 0 0 0 0 1 2 2 1 0 0 0 0 0 0 0 0 0 0 0 0 0 0 0 0 0 0 0 0
0 0 0 0 0 0 0 0 0 0 0 0 0 0 0 0 0 0 0 0 0 0 0 0 0 1 2 2 1 0 0 0 0 0 0 0 0 0 0 0 0 0 0 0 0 0 0 0 0
0 0 0 0 0 0 0 0 0 0 0 0 0 0 0 0 0 0 0 0 0 0 0 0 0 0 1 2 2 1 1 0 0 0 0 0 0 0 0 0 0 0 0 0 0 0 0 0 0
0 0 0 0 0 0 0 0 0 0 0 0 0 0 0 0 0 0 0 0 0 0 0 0 0 0 0 1 2 2 1 0 0 0 0 0 0 0 0 0 0 0 0 0 0 0 0 0 0
0 0 0 0 0 0 0 0 0 0 0 0 0 0 0 0 0 0 0 0 0 0 0 0 0 0 0 0 1 1 1 0 0 0 0 0 0 0 0 0 0 0 0 0 0 0 0 0 0
0 0 0 0 0 0 0 0 0 0 0 0 0 0 0 0 0 0 0 0 0 0 0 0 0 0 0 0 0 0 0 0 0 0 0 0 0 0 0 0 0 0 0 0 0 0 0 0 0
0 0 0 0 0 0 0 0 0 0 0 0 0 0 0 0 0 0 0 0 0 0 0 0 0 0 0 0 0 0 0 0 0 0 0 0 0 0 0 0 0 0 0 0 0 0 0 0 0
0 0 0 0 0 0 0 0 0 0 0 0 0 0 0 0 0 0 0 0 0 0 0 0 0 0 0 0 0 0 0 0 0 0 0 0 0 0 0 0 0 0 0 0 0 0 0 0 0
0 0 0 0 0 0 0 0 0 0 0 0 0 0 0 0 0 0 0 0 0 0 0 0 0 0 0 0 0 0 0 0 0 0 0 0 0 0 0 0 0 0 0 0 0 0 0 0 0
0 0 0 0 0 0 0 0 0 0 0 0 0 0 0 0 0 0 0 0 0 0 0 0 0 0 0 0 0 0 0 0 0 0 0 0 0 0 0 0 0 0 0 0 0 0 0 0 0
0 0 0 0 0 0 0 0 0 0 0 0 0 0 0 0 0 0 0 0 0 0 0 0 0 0 0 0 0 0 0 0 0 0 0 0 0 0 0 0 0 0 0 0 0 0 0 0 0
0 0 0 0 0 0 0 0 0 0 0 0 0 0 0 0 0 0 0 0 0 0 0 0 0 0 0 0 0 0 0 0 0 0 0 0 0 0 0 0 0 0 0 0 0 0 0 0 0
Wind_Speed
13 6 1 3 6 5 1 1 1 2 3 3 4 6 7 5 3 3 1 3 4 4 3 5 7 9 10 10 10 9 9 9 10 10 10 10 10 10 10 10 9 9 9 9 10 9 9 9 8
5 3 4 5 5 2 1 0 2 1 3 3 5 6 6 5 4 4 2 2 5 5 4 5 7 9 9 10 10 9 9 9 9 9 9 9 9 9 9 9 9 8 9 9 9 9 8 8 7
4 2 4 5 3 3 2 1 2 3 4 3 4 5 5 4 3 2 1 3 5 5 4 5 8 8 9 9 9 9 9 9 9 8 8 8 8 8 8 8 8 8 8 8 8 8 8 8 7
3 4 5 5 2 1 1 1 2 3 4 5 4 5 4 4 3 1 4 6 7 5 5 6 8 9 9 9 9 9 8 9 9 8 8 8 8 8 8 7 7 7 7 7 7 7 7 7 7
4 4 4 2 1 1 1 2 3 4 3 4 4 5 4 5 5 5 6 6 7 6 5 5 8 9 9 8 8 8 8 8 8 8 8 8 7 7 7 7 6 6 6 6 6 6 7 6 6
4 4 4 3 2 1 2 3 3 5 4 4 4 5 4 4 6 5 6 6 6 6 5 5 8 8 8 7 7 8 7 7 7 7 7 7 7 7 6 6 6 6 5 5 6 6 6 6 6
4 3 3 4 3 1 2 3 4 4 4 4 2 4 3 4 4 5 6 7 7 7 6 5 5 6 7 8 8 8 8 7 7 7 7 7 7 6 7 6 6 6 6 6 6 6 6 6 6
3 4 3 2 3 1 2 3 4 4 4 3 4 5 2 1 3 5 7 7 7 7 6 6 5 5 5 5 7 8 7 7 7 7 7 6 6 6 7 6 7 6 6 6 6 6 6 6 6
3 4 2 2 4 2 2 3 4 4 6 5 5 4 2 4 5 7 7 7 6 7 6 5 5 5 5 4 5 6 6 7 7 6 7 5 3 3 4 5 6 6 6 6 6 6 7 6 6
4 3 2 1 2 3 3 4 3 4 6 5 6 7 6 6 7 7 7 6 5 5 4 4 4 4 4 4 4 3 4 4 4 4 4 3 3 3 3 5 6 6 6 6 6 6 6 5 3
4 3 2 3 3 3 4 4 4 5 5 2 3 4 6 7 7 6 5 4 4 3 4 4 4 3 3 3 3 2 2 3 3 4 3 3 3 2 3 2 3 4 4 3 4 4 3 2 2
5 4 3 3 3 4 4 3 5 6 3 3 4 5 6 7 6 5 4 4 4 4 4 4 4 3 3 3 2 2 2 2 2 3 3 2 2 2 2 2 2 2 2 2 2 2 3 2 2
5 4 6 6 8 7 8 6 5 4 4 5 7 7 6 6 5 5 5 4 4 4 4 4 4 3 3 3 2 3 2 2 2 2 3 3 2 2 2 2 2 2 2 2 2 2 3 3 3
5 6 5 5 5 5 7 5 4 3 4 6 7 6 5 5 4 4 5 5 4 4 4 3 4 3 3 3 3 2 2 2 2 2 3 3 2 2 2 2 2 2 2 2 1 2 2 2 2
5 6 5 4 3 1 4 5 3 2 4 6 6 5 5 5 5 4 3 3 3 3 3 4 3 4 3 3 3 3 2 2 3 3 3 3 3 2 2 2 2 2 2 2 1 2 2 2 2
3 4 2 3 3 2 4 2 1 2 4 5 5 4 4 4 4 4 3 2 2 3 4 4 3 4 3 3 3 2 2 3 3 3 3 4 4 3 2 2 2 3 2 2 2 2 2 2 2
4 2 1 2 4 3 3 2 0 1 4 4 3 3 3 3 4 4 4 3 3 3 3 4 4 3 3 3 3 3 3 3 3 3 3 4 4 4 2 2 2 3 2 2 2 2 2 2 3
3 3 2 1 2 4 4 2 0 1 3 2 2 2 2 3 3 4 4 4 3 3 3 3 3 3 3 2 2 2 3 3 3 3 3 4 4 4 3 2 3 3 2 2 2 2 2 2 3
4 4 2 0 1 3 3 1 1 1 1 1 1 1 1 1 2 3 4 4 5 4 4 4 3 3 2 1 1 1 2 2 2 3 4 4 4 4 3 3 3 3 2 3 3 2 2 2 2
4 4 2 1 2 2 2 1 1 2 2 2 2 2 1 1 3 4 4 5 5 5 5 4 3 3 2 1 1 0 1 1 1 2 3 4 4 4 3 3 3 3 2 3 3 3 1 2 2
3 3 2 1 2 3 2 3 2 1 1 1 1 1 1 1 1 3 4 4 4 5 5 4 4 4 3 2 2 2 1 1 2 3 3 4 4 4 4 3 3 3 2 2 2 2 2 2 1
1 1 2 2 2 1 1 2 4 1 1 0 0 0 1 1 1 2 3 4 4 4 4 4 5 4 4 3 2 1 1 1 1 2 2 3 3 3 3 4 3 3 2 2 2 2 2 1 2
2 2 2 2 2 1 1 1 5 0 2 3 2 2 1 1 1 1 2 2 3 3 3 4 4 5 5 4 3 1 1 1 1 2 3 3 3 3 4 4 3 3 3 3 3 2 2 1 1
2 3 3 3 3 1 1 2 5 2 4 3 2 2 1 1 1 1 2 3 3 4 4 4 4 5 5 5 5 3 2 1 2 3 3 3 3 3 4 4 3 3 3 3 3 2 2 1 1
3 4 4 5 3 4 1 2 6 3 2 3 3 2 1 1 0 2 3 4 4 5 5 4 4 4 5 5 4 4 3 2 2 2 2 3 2 3 4 4 4 3 3 3 3 3 3 2 2
1 3 4 3 3 3 1 4 5 2 2 2 1 1 0 1 1 2 2 2 3 4 5 5 4 4 5 4 4 3 3 2 1 2 1 2 2 2 3 3 4 4 4 4 3 2 3 3 2
3 2 2 4 2 1 4 5 7 1 2 2 2 1 1 1 1 2 1 2 2 3 4 4 4 4 5 4 4 3 3 2 2 2 1 1 2 3 3 3 3 4 4 4 4 3 3 3 3
3 4 3 4 2 1 4 4 4 3 3 2 2 2 2 2 1 1 1 1 2 2 2 3 3 3 4 4 3 3 3 3 3 2 3 2 3 3 3 3 4 4 4 4 4 4 4 4 4
3 3 3 3 2 3 2 6 4 4 3 3 3 3 2 2 2 2 1 1 1 2 2 2 2 3 3 3 3 3 3 3 3 3 3 3 3 3 3 3 4 4 4 4 4 4 4 4 4
0 1 3 3 2 2 2 7 3 3 2 2 3 3 2 2 2 1 1 1 1 2 2 2 2 3 3 3 3 3 3 3 3 3 3 3 3 3 3 3 4 4 4 4 4 4 4 4 5
Wind_Direction
330 326 31 58 57 58 98 281 116 60 48 37 58 86 102 89 100 113 36 76 90 106 107 111 112 116 114 111 110 109 109 108 106 102 100 97 94 90 86 82 80 78 77 78 76 73 70 68 65
319 329 49 60 86 106 263 300 88 69 119 101 57 61 70 63 48 80 63 58 94 100 99 106 105 108 110 110 109 106 105 106 105 101 100 98 94 89 84 79 76 74 73 72 70 68 66 63 60
319 30 74 78 107 165 177 99 117 71 66 69 75 55 66 51 37 55 45 98 89 83 78 94 100 105 107 106 105 105 102 102 102 99 98 95 91 87 81 76 72 72 71 68 65 63 62 56 52
29 45 58 81 132 186 154 85 105 91 57 44 91 74 68 38 358 32 93 96 89 78 74 84 89 96 102 103 102 102 100 100 99 96 92 89 85 83 78 73 70 66 65 63 61 59 57 51 47
50 73 75 88 167 96 39 20 61 72 64 40 78 91 65 17 32 79 94 92 93 80 70 78 80 84 87 90 96 99 96 95 96 93 89 86 82 78 72 67 62 57 57 57 55 53 50 43 36
53 70 108 171 180 95 33 17 66 65 69 42 59 91 75 37 49 79 90 86 83 80 67 69 71 71 72 77 79 83 87 86 87 88 85 81 77 73 65 59 54 50 50 50 49 46 41 35 30
95 101 149 156 144 88 24 32 65 81 68 35 19 91 88 45 43 79 84 86 80 74 68 56 54 59 63 65 67 68 70 71 75 77 78 74 67 62 56 47 42 39 37 41 41 37 32 28 25
107 106 119 143 142 148 22 52 58 61 75 31 36 92 99 25 66 90 86 80 75 64 59 52 47 48 51 56 59 58 59 58 61 60 62 66 63 54 48 39 32 34 32 32 35 31 26 21 17
78 88 156 176 161 150 55 76 46 54 82 58 49 59 61 102 98 90 84 72 67 60 53 47 48 45 46 53 53 51 51 50 54 51 51 50 45 44 41 31 24 24 25 24 26 25 24 21 15
73 126 176 85 120 114 61 68 72 77 65 56 48 40 71 92 94 90 86 83 74 62 52 42 47 46 42 51 54 46 46 47 47 42 40 38 34 32 34 24 22 20 18 19 23 23 22 21 6
71 123 110 57 77 98 81 55 34 96 67 58 84 81 88 89 88 87 85 85 80 70 53 42 43 46 49 50 55 45 42 42 42 38 32 31 29 25 27 20 12 11 14 15 12 15 11 5 356
86 51 59 45 46 60 75 79 57 51 66 58 88 105 100 90 84 82 80 69 65 61 42 34 36 42 46 56 57 53 48 44 37 25 26 32 28 21 13 12 2 10 9 4 4 1 353 352 350
87 78 59 67 67 71 79 75 82 55 48 67 87 90 92 88 77 69 69 63 60 53 34 30 31 38 44 58 55 59 51 48 41 35 25 32 34 17 7 1 1 356 0 2 353 347 343 343 343
110 98 76 53 61 58 81 68 71 54 64 78 85 88 84 82 75 65 54 52 46 36 23 23 26 31 44 56 56 53 48 41 38 36 22 25 28 17 7 356 351 350 347 339 328 319 324 324 332
104 89 56 32 51 93 90 50 42 52 84 87 84 83 77 66 64 62 56 50 35 23 19 19 30 30 41 57 58 51 41 38 35 23 19 20 21 15 9 0 351 342 333 329 330 333 341 341 340
74 81 71 10 31 30 101 138 32 70 102 97 92 84 75 62 56 48 43 47 39 32 28 21 30 33 42 51 55 56 48 42 33 24 18 17 13 12 15 7 348 338 347 352 350 349 341 334 327
60 113 125 12 20 48 95 155 168 86 104 106 99 88 77 61 42 33 31 33 37 36 31 28 30 35 38 44 46 47 47 43 31 27 20 11 10 10 12 3 354 349 355 1 353 351 342 328 325
136 116 102 129 15 68 100 135 146 101 111 121 110 94 75 60 27 20 23 24 27 30 34 32 32 29 27 41 43 41 39 32 24 24 18 11 6 6 10 7 1 357 357 360 352 337 349 331 319
116 109 113 350 13 76 115 147 229 173 124 126 134 123 94 56 27 29 29 27 26 23 25 25 27 22 30 27 25 19 9 8 13 14 16 13 8 5 9 4 2 2 359 350 342 329 339 350 347
98 103 100 40 30 85 101 282 231 191 184 187 175 166 134 39 22 24 25 28 28 22 16 12 11 7 19 20 18 47 0 4 4 358 10 10 9 4 3 7 357 351 343 357 1 356 343 342 8
69 136 154 154 24 36 64 327 266 251 82 73 92 123 86 58 5 4 13 12 19 16 7 3 360 4 9 21 48 45 37 16 9 1 3 3 7 8 1 357 355 353 351 347 342 349 358 329 331
85 134 153 135 101 347 86 264 267 229 298 293 307 37 20 344 354 2 7 359 4 0 360 6 6 9 11 15 46 46 48 349 324 334 341 351 6 7 2 358 358 357 352 352 349 2 338 341 335
130 113 122 129 110 40 53 193 276 176 255 259 248 244 260 280 320 339 342 340 354 4 6 7 12 12 12 16 18 37 35 343 338 360 356 357 8 10 7 2 2 1 358 357 358 358 357 351 332
128 85 61 50 63 313 231 184 276 249 239 254 244 237 248 277 345 346 353 358 4 9 13 12 17 12 12 20 23 19 12 356 3 5 356 353 357 357 4 1 0 355 355 352 343 341 340 328 315
58 86 44 14 9 259 231 210 253 264 261 241 239 243 245 250 6 352 354 359 2 7 7 7 17 9 11 17 22 16 7 0 2 355 353 350 347 348 353 355 352 351 350 347 343 341 339 322 316
60 109 136 172 227 288 330 239 256 277 312 308 261 223 327 326 2 348 355 359 355 2 7 8 10 4 5 9 8 10 8 358 358 4 354 345 334 333 343 353 353 353 351 348 341 337 334 336 313
99 86 113 117 70 326 286 293 303 291 343 2 4 12 309 310 330 322 341 3 -0 3 7 7 5 4 3 4 1 3 4 357 355 352 354 342 335 336 351 356 356 357 356 352 344 343 342 333 321
80 127 91 103 120 288 297 279 267 290 292 303 298 276 278 294 302 303 325 350 356 1 4 10 11 4 357 358 359 1 359 353 349 356 0 351 344 345 350 353 353 356 353 350 346 341 343 347 340
40 71 92 100 137 157 275 277 236 235 243 248 257 255 257 263 270 279 300 335 3 358 5 7 2 2 358 356 356 354 350 352 359 4 356 349 351 357 356 353 355 359 355 352 350 346 346 346 343
121 138 140 141 215 182 196 271 274 225 244 234 258 274 273 261 260 267 293 347 357 342 353 357 352 350 343 346 347 342 344 356 8 5 355 356 358 1 1 4 4 360 358 354 353 349 354 350 347